Location: Piolenc
(44.1794°N, 4.7641°E)
Time: 01:09:43
(UTC+00:00)

FALCON 9 DEB - Pass Details

Date: 27 January 2021
Orbit: 377 x 389 km, 53.0° (Epoch: 27 February)

Event Time Altitude Azimuth Distance (km) Brightness Sun altitude
Exits shadow 06:26:10 - 263° (W) 1,603 5.4 -7.1°
Reaches altitude 10° 06:26:40 10° 267° (W) 1,406 5.1 -7.0°
Maximum altitude 06:29:36 35° 335° (NNW) 643 3.6 -6.5°
Drops below altitude 10° 06:32:31 10° 44° (NE) 1,403 6.0 -6.0°
Sets 06:34:40 0° 53° (NE) 2,255 7.3 -5.7°
